Simultaneous Nadir Overpasses (SNOs) Predictions

Prediction of SNOs between NOAA-19 and NPP Satellite Orbit:

Table of predicted SNOs for the next 14.0 days since TLE Epoch: 10/2/2015
Index Date (NOAA-19) Time (NOAA-19) Lat,Lon (NOAA-19) SZA (NOAA-19 ) Date (NPP) Time (NPP) Lat,Lon (NPP) SZA (NPP ) Distance(km) Time Diff (sec)
1 10/10/2015 21:39:34 81.04, 162.12 90.92 10/10/2015 21:40:33 81.05, 162.02 90.91 1.89 59
2 10/10/2015 22:30:30 -81.04, -30.44 89.09 10/10/2015 22:31:17 -81.03, -30.37 89.13 1.36 47
3 10/10/2015 23:21:36 81.04, 136.79 90.93 10/10/2015 23:22:02 81.03, 136.97 90.89 3.12 26
4 10/11/2015 00:12:32 -81.04, -55.78 89.09 10/11/2015 00:12:47 -81.04, -55.79 89.09 0.27 15
5 10/11/2015 01:03:38 81.04, 111.46 90.93 10/11/2015 01:03:32 81.04, 111.54 90.92 1.44 6
6 10/11/2015 01:54:34 -81.04, -81.11 89.08 10/11/2015 01:54:17 -81.04, -81.22 89.06 1.88 17
7 10/11/2015 02:45:40 81.04, 86.12 90.93 10/11/2015 02:45:02 81.04, 86.11 90.96 0.33 38
8 10/11/2015 03:36:36 -81.04,-106.45 89.08 10/11/2015 03:35:46 -81.03,-106.28 89.08 3.11 50




NCC Satellite Simultaneous Nadir Overpasses (SNOs) Prediction Service
